Location: ?????????
(41.2393°N, 22.9479°E)
Time: 23:06:37
(UTC+00:00)

Okean 1 Rocket - Pass Details

Date: 17 November 2025
Orbit: 599 x 628 km, 82.5° (Epoch: 09 December)

Event Time Altitude Azimuth Distance (km) Brightness Sun altitude
Rises 16:06:21 0° 154° (SSE) 2,891 6.4 -11.2°
Reaches altitude 10° 16:08:56 10° 140° (SE) 1,985 5.4 -11.7°
Maximum altitude 16:12:23 23° 88° (E) 1,326 4.2 -12.3°
Enters shadow 16:14:34 16° 50° (NE) 1,620 4.7 -12.7°
